Lakeland Region, FL

6:11 AM EDT on July 25, 2017 (GMT -0400)
Lakeland Linder Regional

Weather History for KLAL - June, 2013

Change the Weather History Date:

Tuesday, June 4, 2013

  Actual Average Record
Temperature  
Mean Temperature 78 °F -  
Max Temperature 84 °F 87 °F 100 °F (1985)
Min Temperature 71 °F 69 °F 63 °F (1988)
Cooling Degree Days 12    
Growing Degree Days 28 (Base 50)    
Moisture  
Dew Point 71 °F    
Average Humidity 88    
Maximum Humidity 100    
Minimum Humidity 58    
Precipitation  
Precipitation 0.00 in - - ()
Sea Level Pressure  
Sea Level Pressure 30.01 in    
Wind  
Wind Speed 4 mph (SSE)    
Max Wind Speed 14 mph    
Max Gust Speed 20 mph    
Visibility 10 miles    
Events Rain    
Averages and records for this station are not official NWS values.
T = Trace of Precipitation, MM = Missing Value Source: NWS Daily Summary

Daily Weather History Graph

Daily Weather History Graph

Search for Another Location

Airport or City:

Trip Planner

Search our weather history database for the weather conditions in past years. The results will help you decide how hot, cold, wet, or windy it might be!

Date:

Astronomy

Jun. 04, 2013 Rise Set
Actual Time 6:31 AM EDT 8:21 PM EDT
Civil Twilight 6:04 AM EDT 8:48 PM EDT
Nautical Twilight 5:33 AM EDT 9:20 PM EDT
Astronomical Twilight 4:59 AM EDT 9:53 PM EDT
Moon 3:44 AM EDT (6/4) 5:03 PM EDT (6/4)
Length of Visible Light 14h 43m
Length of Day
13h 50m
Waning Crescent, 14% of the Moon is Illuminated
Jun 4
Waning Crescent
Jun 8
New
Jun 16
First Quarter
Jun 23
Full
Jun 30
Last Quarter

Hourly Weather History & Observations

Time (EDT) Temp. Heat Index Dew Point Humidity Pressure Visibility Wind Dir Wind Speed Gust Speed Precip Events Conditions
12:15 AM 73.4 °F - 71.6 °F 94% 30.02 in 10.0 mi SSE 3.5 mph - N/A   Overcast
12:35 AM 73.4 °F - 71.6 °F 94% 30.02 in 10.0 mi Calm Calm - N/A   Overcast
12:55 AM 73.4 °F - 71.6 °F 94% 30.01 in 10.0 mi Calm Calm - N/A   Overcast
1:15 AM 73.4 °F - 71.6 °F 94% 30.01 in 10.0 mi Calm Calm - N/A   Overcast
1:35 AM 73.4 °F - 71.6 °F 94% 30.01 in 10.0 mi Calm Calm - N/A   Overcast
1:55 AM 73.4 °F - 71.6 °F 94% 30.00 in 10.0 mi South 3.5 mph - N/A   Overcast
2:15 AM 73.4 °F - 71.6 °F 94% 29.99 in 10.0 mi SE 4.6 mph - N/A   Overcast
2:35 AM 73.4 °F - 71.6 °F 94% 29.98 in 10.0 mi SE 3.5 mph - N/A   Mostly Cloudy
2:55 AM 73.4 °F - 71.6 °F 94% 29.98 in 10.0 mi SSE 5.8 mph - N/A   Overcast
3:15 AM 73.4 °F - 71.6 °F 94% 29.97 in 10.0 mi SSE 4.6 mph - N/A   Mostly Cloudy
3:35 AM 73.4 °F - 71.6 °F 94% 29.97 in 10.0 mi SE 3.5 mph - N/A   Mostly Cloudy
3:55 AM 73.4 °F - 71.6 °F 94% 29.97 in 10.0 mi Calm Calm - N/A   Overcast
4:15 AM 73.4 °F - 71.6 °F 94% 29.97 in 10.0 mi SE 3.5 mph - N/A   Scattered Clouds
4:35 AM 73.4 °F - 71.6 °F 94% 29.98 in 10.0 mi SE 3.5 mph - N/A   Scattered Clouds
4:55 AM 73.4 °F - 71.6 °F 94% 29.98 in 10.0 mi SSE 4.6 mph - N/A   Mostly Cloudy
5:15 AM 71.6 °F - 71.6 °F 100% 29.98 in 10.0 mi SSE 3.5 mph - N/A   Scattered Clouds
5:35 AM 71.6 °F - 69.8 °F 94% 29.98 in 10.0 mi South 4.6 mph - N/A   Clear
5:50 AM 73.4 °F - 71.6 °F 94% 29.98 in 7.0 mi South 6.9 mph - N/A   Mostly Cloudy
5:55 AM 73.4 °F - 69.8 °F 88% 29.98 in 10.0 mi South 6.9 mph - N/A   Clear
6:15 AM 73.4 °F - 69.8 °F 88% 29.98 in 10.0 mi South 5.8 mph - N/A   Clear
6:35 AM 73.4 °F - 69.8 °F 88% 29.98 in 10.0 mi South 3.5 mph - N/A   Clear
7:53 AM 73.4 °F - 71.6 °F 94% 30.00 in 10.0 mi South 4.6 mph - N/A   Mostly Cloudy
8:50 AM 75.2 °F - 71.6 °F 89% 30.02 in 10.0 mi SW 6.9 mph - N/A   Mostly Cloudy
9:53 AM 78.8 °F - 69.8 °F 74% 30.03 in 10.0 mi SSW 11.5 mph - N/A   Mostly Cloudy
10:52 AM 80.6 °F 83.9 °F 69.8 °F 70% 30.04 in 10.0 mi SSW 6.9 mph - N/A   Mostly Cloudy
12:50 PM 80.6 °F 83.9 °F 69.8 °F 70% 30.04 in 10.0 mi South 8.1 mph - N/A   Overcast
1:55 PM 84.2 °F 87.3 °F 68.0 °F 58% 30.01 in 10.0 mi South 13.8 mph - N/A   Overcast
2:53 PM 82.4 °F 85.4 °F 68.0 °F 62% 30.01 in 12.0 mi SSW 12.7 mph 19.6 mph N/A   Overcast
3:53 PM 84.2 °F 87.3 °F 68.0 °F 58% 30.00 in 12.0 mi South 11.5 mph - N/A   Mostly Cloudy
4:52 PM 78.8 °F - 68.0 °F 69% 30.00 in 12.0 mi West 8.1 mph - N/A   Overcast
5:57 PM 73.4 °F - 69.8 °F 88% 30.01 in 3.0 mi WSW 11.5 mph - N/A Rain Rain
6:50 PM 73.4 °F - 69.8 °F 88% 30.01 in 7.0 mi Calm Calm - N/A Rain Light Rain
7:50 PM 73.4 °F - 71.6 °F 94% 30.03 in 10.0 mi ENE 8.1 mph - N/A Rain Light Rain
8:51 PM 73.4 °F - 71.6 °F 94% 30.04 in 10.0 mi ESE 4.6 mph - N/A   Overcast
9:50 PM 73.4 °F - 71.6 °F 94% 30.04 in 10.0 mi Calm Calm - N/A   Overcast
10:55 PM 71.6 °F - 69.8 °F 94% 30.05 in 10.0 mi East 4.6 mph - N/A   Overcast
11:15 PM 71.6 °F - 69.8 °F 94% 30.05 in 10.0 mi East 4.6 mph - N/A   Mostly Cloudy
11:35 PM 71.6 °F - 69.8 °F 94% 30.04 in 10.0 mi East 4.6 mph - N/A   Mostly Cloudy
11:55 PM 71.6 °F - 69.8 °F 94% 30.04 in 10.0 mi East 4.6 mph - N/A   Overcast